TimeEST,TemperatureF,Dew PointF,Humidity,Sea Level PressureIn,VisibilityMPH,Wind Direction,Wind SpeedMPH,Gust SpeedMPH,PrecipitationIn,Events,Conditions,WindDirDegrees,DateUTC
12:33 AM,60.8,60.8,100,30.11,10.0,North,5.8,-,N/A,,Overcast,360,2013-11-24 05:33:00
12:47 AM,60.8,60.8,100,30.11,10.0,North,4.6,-,N/A,,Light Drizzle,350,2013-11-24 05:47:00
12:56 AM,59.0,59.0,100,30.11,10.0,NNW,5.8,-,N/A,,Overcast,340,2013-11-24 05:56:00
12:58 AM,59.0,59.0,100,30.12,10.0,NNW,5.8,-,0.00,,Overcast,340,2013-11-24 05:58:00
1:03 AM,59.0,59.0,100,30.11,10.0,NNW,5.8,-,N/A,,Overcast,340,2013-11-24 06:03:00
1:58 AM,59.5,59.5,100,30.14,10.0,North,5.8,-,N/A,,Overcast,350,2013-11-24 06:58:00
2:58 AM,58.6,57.9,97,30.15,10.0,NNE,6.9,-,N/A,,Mostly Cloudy,20,2013-11-24 07:58:00
3:28 AM,57.2,53.6,88,30.14,10.0,North,6.9,-,N/A,,Mostly Cloudy,350,2013-11-24 08:28:00
3:58 AM,55.4,48.0,76,30.16,10.0,NNE,10.4,-,N/A,,Scattered Clouds,20,2013-11-24 08:58:00
4:58 AM,52.2,44.1,74,30.19,10.0,North,8.1,-,N/A,,Clear,360,2013-11-24 09:58:00
5:58 AM,49.3,37.9,65,30.23,10.0,North,8.1,-,N/A,,Clear,360,2013-11-24 10:58:00
6:58 AM,46.8,35.2,64,30.27,10.0,North,8.1,-,N/A,,Clear,10,2013-11-24 11:58:00
7:58 AM,46.0,32.9,60,30.30,10.0,NNE,11.5,18.4,N/A,,Clear,20,2013-11-24 12:58:00
8:58 AM,47.1,28.9,49,30.34,10.0,NNE,18.4,24.2,N/A,,Clear,20,2013-11-24 13:58:00
9:58 AM,47.8,27.5,45,30.37,10.0,NNE,16.1,25.3,N/A,,Clear,20,2013-11-24 14:58:00
10:58 AM,48.7,26.2,42,30.39,10.0,NNE,11.5,20.7,N/A,,Clear,20,2013-11-24 15:58:00
11:33 AM,50.0,26.6,40,30.37,10.0,NNE,13.8,23.0,N/A,,Clear,30,2013-11-24 16:33:00
11:58 AM,51.3,25.0,36,30.38,10.0,NNW,16.1,-,N/A,,Clear,340,2013-11-24 16:58:00
12:58 PM,52.7,26.6,36,30.34,10.0,North,13.8,21.9,N/A,,Clear,350,2013-11-24 17:58:00
1:58 PM,53.1,24.3,33,30.33,10.0,NNE,12.7,-,N/A,,Clear,20,2013-11-24 18:58:00
2:58 PM,52.7,23.4,32,30.33,10.0,NE,10.4,-,N/A,,Clear,50,2013-11-24 19:58:00
3:58 PM,51.4,23.2,33,30.35,10.0,NE,8.1,-,N/A,,Clear,40,2013-11-24 20:58:00
4:58 PM,48.7,23.9,38,30.37,10.0,NNE,6.9,-,N/A,,Clear,30,2013-11-24 21:58:00
5:58 PM,42.1,29.7,61,30.39,10.0,NNE,4.6,-,N/A,,Clear,20,2013-11-24 22:58:00
6:58 PM,37.6,29.3,72,30.42,10.0,NNE,4.6,-,N/A,,Clear,20,2013-11-24 23:58:00
7:29 PM,39.2,26.6,61,30.43,10.0,NNE,5.8,-,N/A,,Clear,30,2013-11-25 00:29:00
7:39 PM,37.4,28.4,70,30.43,10.0,NE,6.9,-,N/A,,Clear,40,2013-11-25 00:39:00
7:58 PM,38.7,25.7,60,30.43,10.0,NE,6.9,-,0.00,,Clear,40,2013-11-25 00:58:00
8:58 PM,37.4,25.0,61,30.46,10.0,NNE,5.8,-,N/A,,Clear,30,2013-11-25 01:58:00
9:58 PM,34.5,26.4,72,30.47,10.0,NNE,5.8,-,N/A,,Clear,20,2013-11-25 02:58:00
10:58 PM,34.3,25.0,69,30.47,10.0,NNE,6.9,-,N/A,,Clear,30,2013-11-25 03:58:00
11:58 PM,33.8,23.9,67,30.46,10.0,NNE,5.8,-,N/A,,Clear,30,2013-11-25 04:58:00